STARLINK-5465, 54775

Orbit data source: Space-Track

STARLINK-5465, 54775 is a payload satellite owned by SpaceX/Seattle (US) in LEO that was launched on Sat, 17 Dec 2022 UTC via an FALCON 9 launch vehicle from the Air Force Eastern Test Range (AFETR). Payload-class satellites include a variety of spacecraft equipped with specific instruments for various scientific and technological missions. These include communications satellites like Starlink; space stations such as the ISS; scientific satellites like the Hubble; Earth observation satellites from companies like Planet Labs, Umbra, and HawkEye 360; GPS; miniature CubeSats for education and research; and military/defense satellites.

Loading next visibility...
Identifier
54775, 2022-175T
Orbit
LEO
Country
Flag of USUS
Related business
Manufacturer
SpaceX/Seattle
Mission
Operational Commercial Communications
Bus & Motor
STARLINK, Unknown motor
Mass
305 kg wet, ~290 kg dry
Launch date (UTC)
2022-12-17 (4 years ago)
Launch vehicle
FALCON 9
Launch site
Air Force Eastern Test Range (AFETR)
Object type
Payload
Rocket body
Debris
Shape & HBR
Box + 1 Pan, 10.1 m
Radar Cross Section
13.562 m², Large (>1 m²)

Expand to show TLE details & history
Last TLE update: 3 days ago

TLE from 3 days ago
0 STARLINK-5465
1 54775U 22175T   26170.64847616  .00000545  00000-0  52326-4 0  9999
2 54775  53.1600 306.1336 0001330  91.3566 268.7577 15.08832956195312
Epoch: 2026-06-19T15:33Z
TLE epoch observation values (Epoch: 2026-06-19T15:33:48.340Z)
Latitude
-0.00007°
Longitude
164.8077°
Altitude
540.676 km
Speed
7.593 km/s
True Right ascension
20h 24m 32s
True Declination
0° 00' 00"
Sunlit
Object was in full shadow at epoch
Visualization orbit readout
Latitude
Unknown
Longitude
Unknown
Altitude
Unknown
Speed
Unknown
Apparent Right ascension
Unknown
Apparent Declination
Unknown
Sunlit
N/A
Visualization observer readout
Local Sidereal Time
21:31:20
Azimuth
Unknown
Elevation
Unknown
Doppler factor
Unknown
Orbital elements
Apogee altitude
540.939 km
Perigee altitude
539.099 km
Semi-major axis
6,918.156 km
Eccentricity
0.00013
Inclination
53.16°
RAAN
306.1336°
Arg. of periapsis
91.3566°
True anomaly
268.74246°
Mean anomaly
268.7577°
Eccentric anomaly
268.75008°
Mean motion
3.77188 °/min
Orbital period
95.44 mins
BSTAR
0.000052326
Loading maneuver chart data...
Computing Atmospheric mass density...
Loading historical data...
Loading historical data...
Loading historical data...
Loading historical data...
Loading historical data...
Loading historical data...
Loading historical data...

Documentation

Showing up to 5 results
|